| time (UTC) | temp C | wind direction | speed KPH | gust KPH | rain 1hr cm | rain 24hr cm | rain mn cm | humidity % | barometer mb |
| 20260505012111 | 11 | 254 | 4.8 | 12.9 | 0.00 | 0.00 | 0.00 | 69 | 1007.4 |
| 20260505011611 | 11 | 260 | 3.2 | 6.4 | 0.00 | 0.00 | 0.00 | 70 | 1007.1 |
| 20260505011110 | 11 | 175 | 0.0 | 0.0 | 0.00 | 0.00 | 0.00 | 68 | 1007.4 |
| 20260505010609 | 11 | 175 | 0.0 | 0.0 | 0.00 | 0.00 | 0.00 | 68 | 1007.4 |
| 20260505010037 | 11 | 175 | 0.0 | 0.0 | 0.00 | 0.00 | 0.00 | 69 | 1007.1 |
| 20260505005506 | 11 | 175 | 0.0 | 0.0 | 0.00 | 0.00 | 0.00 | 67 | 1007.1 |
| 20260505005005 | 12 | 175 | 0.0 | 0.0 | 0.00 | 0.00 | 0.00 | 68 | 1007.1 |
| 20260505004504 | 12 | 175 | 0.0 | 0.0 | 0.00 | 0.00 | 0.00 | 66 | 1006.8 |
| 20260505003901 | 12 | 175 | 0.0 | 0.0 | 0.00 | 0.00 | 0.00 | 66 | 1006.8 |
| 20260505003400 | 12 | 175 | 0.0 | 0.0 | 0.00 | 0.00 | 0.00 | 67 | 1006.8 |
| 20260505002859 | 13 | 175 | 0.0 | 0.0 | 0.00 | 0.00 | 0.00 | 66 | 1006.8 |
| 20260505002328 | 13 | 175 | 0.0 | 0.0 | 0.00 | 0.00 | 0.00 | 61 | 1006.8 |
| 20260505001827 | 13 | 175 | 0.0 | 0.0 | 0.00 | 0.00 | 0.00 | 59 | 1006.4 |
| 20260505001326 | 14 | 175 | 0.0 | 0.0 | 0.00 | 0.00 | 0.00 | 57 | 1006.4 |
| 20260505000826 | 14 | 175 | 0.0 | 0.0 | 0.00 | 0.00 | 0.00 | 56 | 1006.1 |
| 20260505000325 | 15 | 175 | 0.0 | 0.0 | 0.00 | 0.00 | 0.00 | 54 | 1006.1 |
| 20260504235825 | 15 | 175 | 0.0 | 4.8 | 0.00 | 0.00 | 0.00 | 53 | 1006.1 |
| 20260504235324 | 16 | 175 | 0.0 | 4.8 | 0.00 | 0.00 | 0.00 | 49 | 1006.1 |
| 20260504234823 | 16 | 167 | 0.0 | 4.8 | 0.00 | 0.00 | 0.00 | 48 | 1005.7 |
| 20260504234252 | 16 | 190 | 3.2 | 4.8 | 0.00 | 0.00 | 0.00 | 47 | 1005.7 |
| 20260504233751 | 17 | 239 | 3.2 | 8.0 | 0.00 | 0.00 | 0.00 | 46 | 1005.7 |
| 20260504233250 | 17 | 256 | 3.2 | 8.0 | 0.00 | 0.00 | 0.00 | 44 | 1005.7 |
| 20260504232749 | 18 | 213 | 3.2 | 9.7 | 0.00 | 0.00 | 0.00 | 43 | 1005.7 |
| 20260504232249 | 18 | 257 | 3.2 | 14.5 | 0.00 | 0.00 | 0.00 | 42 | 1005.7 |
| 20260504231748 | 18 | 255 | 3.2 | 19.3 | 0.00 | 0.00 | 0.00 | 41 | 1005.7 |
| 20260504231247 | 18 | 263 | 11.3 | 19.3 | 0.00 | 0.00 | 0.00 | 40 | 1005.7 |
| 20260504230746 | 18 | 249 | 8.0 | 12.9 | 0.00 | 0.00 | 0.00 | 41 | 1005.7 |
| 20260504230245 | 18 | 278 | 9.7 | 14.5 | 0.00 | 0.00 | 0.00 | 40 | 1005.4 |
| 20260504225744 | 19 | 271 | 3.2 | 14.5 | 0.00 | 0.00 | 0.00 | 40 | 1005.4 |
| 20260504225243 | 20 | 264 | 6.4 | 12.9 | 0.00 | 0.00 | 0.00 | 38 | 1005.4 |
| 20260504224743 | 20 | 277 | 8.0 | 17.7 | 0.00 | 0.00 | 0.00 | 37 | 1005.1 |
| 20260504224242 | 20 | 280 | 8.0 | 17.7 | 0.00 | 0.00 | 0.00 | 38 | 1005.1 |
| 20260504223741 | 20 | 275 | 12.9 | 17.7 | 0.00 | 0.00 | 0.00 | 37 | 1005.1 |
| 20260504223237 | 20 | 286 | 8.0 | 20.9 | 0.00 | 0.00 | 0.00 | 37 | 1005.1 |
| 20260504222736 | 20 | 269 | 12.9 | 20.9 | 0.00 | 0.00 | 0.00 | 37 | 1005.1 |
| 20260504222204 | 19 | 291 | 8.0 | 17.7 | 0.00 | 0.00 | 0.00 | 39 | 1005.1 |
| 20260504221703 | 19 | 284 | 11.3 | 17.7 | 0.00 | 0.00 | 0.00 | 39 | 1005.0 |
| 20260504221202 | 19 | 306 | 8.0 | 20.9 | 0.00 | 0.00 | 0.00 | 38 | 1005.0 |
| 20260504220702 | 20 | 254 | 8.0 | 22.5 | 0.00 | 0.00 | 0.00 | 38 | 1005.0 |
| 20260504220201 | 20 | 224 | 4.8 | 22.5 | 0.00 | 0.00 | 0.00 | 38 | 1005.0 |
| 20260504215700 | 20 | 267 | 9.7 | 24.1 | 0.00 | 0.00 | 0.00 | 37 | 1005.0 |
| 20260504215128 | 20 | 264 | 8.0 | 27.4 | 0.00 | 0.00 | 0.00 | 38 | 1005.0 |
| 20260504214628 | 20 | 271 | 16.1 | 29.0 | 0.00 | 0.00 | 0.00 | 36 | 1005.1 |
| 20260504214055 | 21 | 248 | 14.5 | 29.0 | 0.00 | 0.00 | 0.00 | 34 | 1005.1 |
| 20260504213554 | 21 | 297 | 14.5 | 27.4 | 0.00 | 0.00 | 0.00 | 34 | 1005.1 |
| 20260504213054 | 20 | 308 | 14.5 | 27.4 | 0.00 | 0.00 | 0.00 | 35 | 1005.1 |
| 20260504212553 | 20 | 283 | 11.3 | 30.6 | 0.00 | 0.00 | 0.00 | 36 | 1005.0 |
| 20260504212052 | 20 | 270 | 19.3 | 30.6 | 0.00 | 0.00 | 0.00 | 34 | 1005.0 |
| 20260504211551 | 21 | 274 | 9.7 | 32.2 | 0.00 | 0.00 | 0.00 | 35 | 1005.1 |
| 20260504211050 | 21 | 268 | 16.1 | 32.2 | 0.00 | 0.00 | 0.00 | 33 | 1005.1 |
| 20260504210550 | 22 | 270 | 14.5 | 30.6 | 0.00 | 0.00 | 0.00 | 32 | 1005.1 |
| 20260504210049 | 22 | 282 | 14.5 | 32.2 | 0.00 | 0.00 | 0.00 | 33 | 1005.1 |
| 20260504205548 | 22 | 302 | 12.9 | 33.8 | 0.00 | 0.00 | 0.00 | 31 | 1005.1 |
| 20260504205047 | 23 | 294 | 16.1 | 33.8 | 0.00 | 0.00 | 0.00 | 31 | 1004.8 |
| 20260504204544 | 22 | 298 | 9.7 | 30.6 | 0.00 | 0.00 | 0.00 | 33 | 1004.8 |
| 20260504203910 | 22 | 264 | 16.1 | 35.4 | 0.00 | 0.00 | 0.00 | 32 | 1004.8 |
| 20260504203410 | 22 | 301 | 6.4 | 35.4 | 0.00 | 0.00 | 0.00 | 33 | 1004.8 |
| 20260504202909 | 21 | 268 | 11.3 | 25.7 | 0.00 | 0.00 | 0.00 | 38 | 1004.7 |
| 20260504202337 | 21 | 283 | 6.4 | 16.1 | 0.00 | 0.00 | 0.00 | 38 | 1004.7 |
| 20260504201805 | 21 | 310 | 11.3 | 20.9 | 0.00 | 0.00 | 0.00 | 37 | 1004.8 |
| 20260504201305 | 21 | 303 | 11.3 | 30.6 | 0.00 | 0.00 | 0.00 | 36 | 1005.1 |
| 20260504200804 | 22 | 282 | 12.9 | 32.2 | 0.00 | 0.00 | 0.00 | 33 | 1005.1 |
| 20260504200233 | 22 | 289 | 17.7 | 32.2 | 0.00 | 0.00 | 0.00 | 34 | 1005.1 |
| 20260504195732 | 21 | 310 | 12.9 | 27.4 | 0.00 | 0.00 | 0.00 | 37 | 1005.1 |
| 20260504195231 | 21 | 282 | 14.5 | 27.4 | 0.00 | 0.00 | 0.00 | 33 | 1005.1 |
| 20260504194659 | 21 | 294 | 11.3 | 29.0 | 0.00 | 0.00 | 0.00 | 34 | 1005.1 |
| 20260504194127 | 21 | 307 | 9.7 | 29.0 | 0.00 | 0.00 | 0.00 | 36 | 1005.1 |
| 20260504193626 | 21 | 291 | 14.5 | 27.4 | 0.00 | 0.00 | 0.00 | 35 | 1005.1 |
| 20260504193126 | 20 | 288 | 9.7 | 22.5 | 0.00 | 0.00 | 0.00 | 38 | 1005.1 |
| 20260504192625 | 20 | 276 | 14.5 | 29.0 | 0.00 | 0.00 | 0.00 | 36 | 1005.4 |
| 20260504192124 | 20 | 269 | 17.7 | 29.0 | 0.00 | 0.00 | 0.00 | 37 | 1005.1 |
| 20260504191624 | 20 | 323 | 14.5 | 33.8 | 0.00 | 0.00 | 0.00 | 36 | 1005.1 |
| 20260504191123 | 21 | 292 | 17.7 | 33.8 | 0.00 | 0.00 | 0.00 | 34 | 1005.4 |
| 20260504190622 | 21 | 301 | 12.9 | 35.4 | 0.00 | 0.00 | 0.00 | 37 | 1005.4 |
| 20260504190122 | 21 | 265 | 19.3 | 35.4 | 0.00 | 0.00 | 0.00 | 33 | 1005.4 |
| 20260504185621 | 21 | 282 | 11.3 | 27.4 | 0.00 | 0.00 | 0.00 | 37 | 1005.4 |
| 20260504185049 | 21 | 309 | 14.5 | 29.0 | 0.00 | 0.00 | 0.00 | 36 | 1005.4 |
| 20260504184548 | 21 | 308 | 12.9 | 30.6 | 0.00 | 0.00 | 0.00 | 33 | 1005.1 |
| 20260504184047 | 21 | 298 | 8.0 | 30.6 | 0.00 | 0.00 | 0.00 | 36 | 1005.4 |
| 20260504183547 | 20 | 285 | 11.3 | 51.5 | 0.00 | 0.00 | 0.00 | 36 | 1005.4 |
| 20260504183046 | 21 | 279 | 22.5 | 51.5 | 0.00 | 0.00 | 0.00 | 34 | 1005.4 |
| 20260504182545 | 21 | 270 | 19.3 | 41.8 | 0.00 | 0.00 | 0.00 | 35 | 1005.4 |
| 20260504182044 | 21 | 276 | 20.9 | 48.3 | 0.00 | 0.00 | 0.00 | 35 | 1005.4 |
| 20260504181544 | 21 | 277 | 16.1 | 48.3 | 0.00 | 0.00 | 0.00 | 36 | 1005.4 |
| 20260504181043 | 21 | 284 | 20.9 | 41.8 | 0.00 | 0.00 | 0.00 | 33 | 1005.4 |
| 20260504180542 | 21 | 285 | 14.5 | 37.0 | 0.00 | 0.00 | 0.00 | 33 | 1005.0 |
| 20260504180042 | 21 | 288 | 16.1 | 41.8 | 0.00 | 0.00 | 0.00 | 32 | 1005.4 |
| 20260504175541 | 21 | 256 | 20.9 | 41.8 | 0.00 | 0.00 | 0.00 | 33 | 1005.0 |
| 20260504175040 | 21 | 250 | 19.3 | 33.8 | 0.00 | 0.00 | 0.00 | 35 | 1005.4 |
| 20260504174539 | 21 | 265 | 17.7 | 33.8 | 0.00 | 0.00 | 0.00 | 33 | 1005.4 |
| 20260504174035 | 20 | 272 | 11.3 | 35.4 | 0.00 | 0.00 | 0.00 | 38 | 1005.4 |
| 20260504173534 | 20 | 257 | 16.1 | 35.4 | 0.00 | 0.00 | 0.00 | 37 | 1005.7 |
| 20260504173033 | 20 | 276 | 17.7 | 30.6 | 0.00 | 0.00 | 0.00 | 35 | 1005.7 |
| 20260504172533 | 19 | 299 | 17.7 | 43.5 | 0.00 | 0.00 | 0.00 | 39 | 1005.7 |
| 20260504172032 | 19 | 261 | 14.5 | 43.5 | 0.00 | 0.00 | 0.00 | 36 | 1005.7 |
| 20260504171531 | 20 | 296 | 16.1 | 37.0 | 0.00 | 0.00 | 0.00 | 35 | 1005.7 |
| 20260504171030 | 20 | 283 | 11.3 | 41.8 | 0.00 | 0.00 | 0.00 | 36 | 1005.7 |
| 20260504170530 | 20 | 262 | 22.5 | 41.8 | 0.00 | 0.00 | 0.00 | 35 | 1005.7 |
| 20260504151009 | 18 | 268 | 14.5 | 33.8 | 0.00 | 0.00 | 0.00 | 42 | 1006.4 |
| 20260504150437 | 18 | 240 | 16.1 | 32.2 | 0.00 | 0.00 | 0.00 | 41 | 1006.4 |
| 20260504141328 | 15 | 277 | 16.1 | 30.6 | 0.00 | 0.00 | 0.00 | 47 | 1007.0 |
| 20260504140827 | 15 | 292 | 16.1 | 27.4 | 0.00 | 0.00 | 0.00 | 47 | 1007.3 |
| 20260504140324 | 15 | 282 | 12.9 | 25.7 | 0.00 | 0.00 | 0.00 | 48 | 1007.3 |
| 20260504130337 | 13 | 251 | 16.1 | 27.4 | 0.00 | 0.00 | 0.00 | 52 | 1008.0 |
| 20260504120155 | 9 | 220 | 3.2 | 9.7 | 0.00 | 0.00 | 0.00 | 72 | 1008.7 |
| 20260504110511 | 5 | 184 | 0.0 | 4.8 | 0.00 | 0.00 | 0.00 | 92 | 1009.0 |
| 20260504100259 | 3 | 114 | 0.0 | 0.0 | 0.00 | 0.00 | 0.00 | 93 | 1008.7 |
| 20260504081539 | 5 | 219 | 3.2 | 8.0 | 0.00 | 0.00 | 0.00 | 79 | 1008.7 |
| 20260504081007 | 5 | 232 | 3.2 | 8.0 | 0.00 | 0.00 | 0.00 | 79 | 1008.7 |
| 20260504080436 | 5 | 257 | 3.2 | 11.3 | 0.00 | 0.00 | 0.00 | 79 | 1008.7 |
| 20260504070222 | 3 | 265 | 4.8 | 9.7 | 0.00 | 0.00 | 0.00 | 89 | 1008.3 |
| 20260504050720 | 0 | 257 | 3.2 | 8.0 | 0.00 | 0.00 | 0.00 | 95 | 1008.3 |
| 20260504050220 | 0 | 244 | 3.2 | 8.0 | 0.00 | 0.00 | 0.00 | 95 | 1008.3 |
| 20260504045719 | 0 | 248 | 3.2 | 6.4 | 0.00 | 0.00 | 0.00 | 95 | 1008.3 |
| 20260504045218 | 0 | 253 | 3.2 | 6.4 | 0.00 | 0.00 | 0.00 | 94 | 1008.3 |
| 20260504044717 | 1 | 236 | 3.2 | 8.0 | 0.00 | 0.00 | 0.00 | 92 | 1008.3 |
| 20260504044146 | 1 | 252 | 3.2 | 8.0 | 0.00 | 0.00 | 0.00 | 92 | 1008.3 |
| 20260504043614 | 1 | 237 | 4.8 | 8.0 | 0.00 | 0.00 | 0.00 | 92 | 1008.3 |
| 20260504043113 | 1 | 248 | 4.8 | 8.0 | 0.00 | 0.00 | 0.00 | 92 | 1008.2 |
| 20260504042613 | 1 | 204 | 3.2 | 6.4 | 0.00 | 0.00 | 0.00 | 90 | 1008.2 |
| 20260504042112 | 1 | 263 | 3.2 | 8.0 | 0.00 | 0.00 | 0.00 | 89 | 1008.2 |
| 20260504041540 | 1 | 266 | 3.2 | 9.7 | 0.00 | 0.00 | 0.00 | 88 | 1008.2 |
| 20260504041039 | 2 | 257 | 3.2 | 9.7 | 0.00 | 0.00 | 0.00 | 88 | 1008.2 |
| 20260504040538 | 2 | 250 | 4.8 | 9.7 | 0.00 | 0.00 | 0.00 | 88 | 1008.2 |
| 20260504040038 | 2 | 251 | 3.2 | 11.3 | 0.00 | 0.00 | 0.00 | 86 | 1008.2 |
| 20260504035537 | 2 | 260 | 4.8 | 11.3 | 0.00 | 0.00 | 0.00 | 84 | 1008.2 |
| 20260504035036 | 2 | 282 | 4.8 | 11.3 | 0.00 | 0.00 | 0.00 | 83 | 1008.2 |
| 20260504034535 | 2 | 272 | 6.4 | 12.9 | 0.00 | 0.00 | 0.00 | 83 | 1008.2 |
| 20260504034034 | 2 | 277 | 6.4 | 12.9 | 0.00 | 0.00 | 0.00 | 83 | 1007.9 |
| 20260504033534 | 2 | 272 | 4.8 | 12.9 | 0.00 | 0.00 | 0.00 | 84 | 1007.9 |
| 20260504033033 | 2 | 283 | 6.4 | 12.9 | 0.00 | 0.00 | 0.00 | 85 | 1007.9 |
| 20260504032501 | 2 | 279 | 6.4 | 11.3 | 0.00 | 0.00 | 0.00 | 86 | 1007.9 |
| 20260504032001 | 2 | 274 | 4.8 | 11.3 | 0.00 | 0.00 | 0.00 | 87 | 1007.9 |
| 20260504031500 | 2 | 284 | 4.8 | 8.0 | 0.00 | 0.00 | 0.00 | 87 | 1007.9 |
| 20260504030959 | 2 | 299 | 4.8 | 12.9 | 0.00 | 0.00 | 0.00 | 88 | 1007.9 |
| 20260504030458 | 2 | 292 | 6.4 | 12.9 | 0.00 | 0.00 | 0.00 | 89 | 1007.9 |
| 20260504025957 | 2 | 283 | 3.2 | 12.9 | 0.00 | 0.00 | 0.00 | 90 | 1007.9 |
| 20260504025425 | 1 | 291 | 6.4 | 12.9 | 0.00 | 0.00 | 0.00 | 91 | 1007.9 |
| 20260504024854 | 1 | 280 | 6.4 | 14.5 | 0.00 | 0.00 | 0.00 | 91 | 1007.9 |
| 20260504024322 | 1 | 283 | 6.4 | 14.5 | 0.00 | 0.00 | 0.00 | 93 | 1007.9 |
| 20260504023821 | 1 | 293 | 6.4 | 11.3 | 0.00 | 0.00 | 0.00 | 93 | 1007.9 |
| 20260504023320 | 1 | 298 | 3.2 | 6.4 | 0.00 | 0.00 | 0.00 | 93 | 1007.9 |
| 20260504022820 | 1 | 23 | 0.0 | 6.4 | 0.00 | 0.00 | 0.00 | 93 | 1007.9 |
| 20260504022319 | 1 | 300 | 3.2 | 6.4 | 0.00 | 0.00 | 0.00 | 92 | 1007.9 |
| 20260504021819 | 1 | 294 | 1.6 | 3.2 | 0.00 | 0.00 | 0.00 | 92 | 1007.9 |
| 20260504021318 | 1 | 249 | 0.0 | 3.2 | 0.00 | 0.00 | 0.00 | 92 | 1007.9 |
| 20260504020817 | 1 | 263 | 0.0 | 3.2 | 0.00 | 0.00 | 0.00 | 92 | 1007.9 |
| 20260504020316 | 1 | 211 | 0.0 | 4.8 | 0.00 | 0.00 | 0.00 | 90 | 1007.9 |
| 20260504015816 | 1 | 229 | 3.2 | 4.8 | 0.00 | 0.00 | 0.00 | 89 | 1007.9 |
| 20260504015315 | 2 | 323 | 0.0 | 0.0 | 0.00 | 0.00 | 0.00 | 87 | 1007.9 |
| 20260504014814 | 2 | 323 | 0.0 | 0.0 | 0.00 | 0.00 | 0.00 | 86 | 1007.9 |
| 20260504014313 | 2 | 323 | 0.0 | 3.2 | 0.00 | 0.00 | 0.00 | 85 | 1007.9 |
| 20260504013813 | 2 | 336 | 0.0 | 3.2 | 0.00 | 0.00 | 0.00 | 84 | 1007.6 |
| 20260504013312 | 2 | 319 | 1.6 | 8.0 | 0.00 | 0.00 | 0.00 | 83 | 1007.6 |
| 20260504012809 | 3 | 281 | 1.6 | 8.0 | 0.00 | 0.00 | 0.00 | 82 | 1007.9 |